Preview of NWS' New Version of Forecast
This preview is not operational and should not be used for support decisions.

Regional Weather Roundup (RWR)

Issued by National Weather Service (NWS)

                            
000
ASCA42 TJSJ 200110
RWRPR 
PUERTO RICO/U.S. VIRGIN ISLANDS HOURLY WEATHER ROUNDUP
NATIONAL WEATHER SERVICE SAN JUAN PR
900 PM AST WED JUN 19 2019

PRZ001>002-007>008-010-200200-
PUERTO RICO
  
CITY           SKY/WX    TMP DP  RH WIND       PRES   REMARKS
SAN JUAN LMM   PTCLDY    81  75  83 E14       30.07R                  
AGUADILLA      MOCLDY    81  75  83 E20       30.07R                  
CEIBA          CLOUDY    84  75  74 E8        30.10R HX  92           
$$

VIZ001>002-200200-
U.S. VIRGIN ISLANDS
  
CITY           SKY/WX    TMP DP  RH WIND       PRES   REMARKS
CHARLOTTE AMA  CLEAR     82  75  78 E10       30.08R                  
CHRISTIANSTED  PTCLDY    81  73  78 E13       30.07R                  
$$

HOURLY WEATHER ROUNDUP FOR THE NEWS MEDIA
  
CITY           SKY/WX    TMP DP  RH WIND       PRES   REMARKS
ORLANDO        FAIR      73  71  93 SE8       30.02R                  
NEW YORK       FOG       65  65 100 E8        29.79S VSB 1/2          
NEWARK         CLOUDY    68  67  96 E5        29.78S FOG              
CHICAGO        LGT RAIN  57  55  93 N15       29.68F                  
HARTFORD       CLOUDY    64  61  90 SE6       29.82F                  
BOSTON         MOCLDY    69  63  81 S7        29.82R                  
DALLAS         MOCLDY    93  74  53 S10       29.64S HX 103           
PHILADELPHIA   MOCLDY    74  71  91 NW3       29.73S                  
LOS ANGELES    MOSUNNY   67  58  72 W15       29.94S                  
WASHINGTON DC  MOCLDY    80  71  74 S7        29.69F